{"data":{"norad_id":47596,"epoch":"2026-09-20T05:18:15.543072Z","epoch_age_seconds":50108,"freshness":"FRESH","line1":"1 47596U 21009BA  26263.22101323  .04596115  12140-4  74279-3 0  9991","line2":"2 47596  53.0138 134.3246 0009283 253.0616 106.9410 16.32707434311420","mean_motion":16.32707434,"eccentricity":0.0009283,"inclination_deg":53.0138,"raan_deg":134.3246,"arg_perigee_deg":253.0616,"mean_anomaly_deg":106.941,"bstar":0.00074279,"rev_number":31142,"period_min":88.197062744555,"perigee_km":179.18109444505,"apogee_km":191.36672313831,"semimajor_km":6563.4109087917,"source":"CELESTRAK","updated_at":"2026-09-20T09:00:38.596744Z"}}